Location: ???????
(54.6339°N, 39.4245°E)
Time: 17:43:56
(UTC+00:00)

Cosmos 1459 Rocket - Pass Details

Date: 19 May 2025
Orbit: 936 x 998 km, 83.0° (Epoch: 20 June)

Event Time Altitude Azimuth Distance (km) Brightness Sun altitude
Rises 21:09:25 0° 349° (N) 3,622 8.8 -15.4°
Reaches altitude 10° 21:11:56 10° 353° (N) 2,679 7.7 -15.4°
Maximum altitude 21:18:00 63° 75° (ENE) 1,066 4.3 -15.4°
Enters shadow 21:22:38 18° 152° (SSE) 2,165 5.3 -15.4°
